Location: *
(50.2903°S, 172.5375°W)
Time: 08:19:37
(UTC+00:00)

CENTAUR R/B - Pass Details

Date: 17 November 2019
Orbit: 779 x 1409 km, 63.4° (Epoch: 01 December)

Event Time Altitude Azimuth Distance (km) Brightness Sun altitude
Exits shadow 12:37:14 27° 345° (NNW) 2,175 3.7 -18.4°
Maximum altitude 12:41:35 61° 55° (NE) 1,315 3.1 -18.1°
Drops below altitude 10° 12:48:20 10° 132° (SE) 2,871 6.0 -17.7°
Sets 12:50:49 0° 135° (SE) 3,741 6.9 -17.6°
